This demonstration page uses our WeatherBlox Daily Observations layout. Learn more.

Left ArrowRight Arrow

34.74481, -87.66753

Hourly Observations for June 13, 2019

Temp ( °F °C ) Dew Point ( °F °C ) Humidity (%) Winds ( mph kmh ) Pressure ( in mb ) Visibility ( mi km ) Precip ( " mm )
12:53 am 00:53 Clear 66 18.9 57 13.9 73 73 W 3 6 29.91 1013 10 16 0.00 0.00
1:53 am 01:53 Clear 65 18.3 57 13.9 76 76 WNW 6 9 29.91 1013 10 16 0.00 0.00
2:53 am 02:53 Clear 65 18.3 56 13.3 73 73 NW 6 9 29.92 1013 10 16 0.00 0.00
3:53 am 03:53 Clear 63 17.2 55 12.8 76 76 WNW 3 6 29.93 1014 10 16 0.00 0.00
4:53 am 04:53 Clear 61 16.1 55 12.8 81 81 Calm 29.95 1014 10 16 0.00 0.00
5:53 am 05:53 Sunny 60 15.6 56 13.3 86 86 W 7 11 29.98 1015 10 16 0.00 0.00
6:53 am 06:53 Sunny 64 17.8 56 13.3 75 75 WNW 7 11 29.99 1016 10 16 0.00 0.00
7:53 am 07:53 Sunny 67 19.4 56 13.3 68 68 N 7 11 30.01 1016 10 16 0.00 0.00
8:53 am 08:53 Sunny 71 21.7 54 12.2 55 55 NNW 10 17 30.02 1017 10 16 0.00 0.00
9:53 am 09:53 Sunny 74 23.3 53 11.7 48 48 WNW 10 17 30.03 1017 10 16 0.00 0.00
10:53 am 10:53 Sunny 77 25 52 11.1 42 42 NNW 9 15 30.04 1017 10 16 0.00 0.00
11:53 am 11:53 Sunny 78 25.6 51 10.6 39 39 N 10 17 30.04 1017 10 16 0.00 0.00
12:53 pm 12:53 Mostly Sunny 80 26.7 49 9.4 34 34 NNW 9 15 30.04 1017 10 16 0.00 0.00
1:53 pm 13:53 Mostly Sunny 83 28.3 49 9.4 31 31 NW 14 22 30.04 1017 10 16 0.00 0.00
2:53 pm 14:53 Mostly Cloudy 83 28.3 49 9.4 31 31 NW 10 17 30.04 1017 10 16 0.00 0.00
3:53 pm 15:53 Partly Cloudy 83 28.3 50 10 32 32 WNW 8 13 30.04 1017 10 16 0.00 0.00
4:53 pm 16:53 Partly Cloudy 81 27.2 49 9.4 33 33 W 10 17 30.04 1017 10 16 0.00 0.00
5:53 pm 17:53 Sunny 80 26.7 50 10 35 35 NW 12 19 30.04 1017 10 16 0.00 0.00
6:53 pm 18:53 Sunny 79 26.1 46 7.8 31 31 NW 8 13 30.05 1018 10 16 0.00 0.00
7:53 pm 19:53 Sunny 75 23.9 48 8.9 39 39 NNW 5 7 30.06 1018 10 16 0.00 0.00
8:53 pm 20:53 Clear 69 20.6 51 10.6 53 53 NNW 5 7 30.07 1018 10 16 0.00 0.00
9:53 pm 21:53 Clear 68 20 50 10 53 53 N 3 6 30.09 1019 10 16 0.00 0.00
10:53 pm 22:53 Clear 64 17.8 53 11.7 68 68 Calm 30.11 1020 10 16 0.00 0.00
11:53 pm 23:53 Clear 61 16.1 54 12.2 78 78 Calm 30.13 1020 10 16 0.00 0.00

Powered by AerisWeather